User: anonymous   Login
Location: Oberwangen
(47.4286°N, 8.9679°E)
Time: 20:48:19
(UTC+00:00)
Language:

SPACEBEE-74 - Orbit

View from above orbital plane
View from above orbital plane
View from above satellite
View from above satellite

Ground track
Ground track

The orbit data is extracted from the following two-line orbital elements,

1 48636U 21006FC  22024.08719895  .00007238  00000-0  37310-3 0  9990
2 48636  97.2303  78.6140 0017099  48.4952 311.7745 15.16526121 55465
Epoch (UTC): 24 January 2022 02:05:33
Eccentricity: 0.0017099
inclination: 97.2303°
perigee height: 504 km
apogee height: 528 km
right ascension of ascending node: 78.6140°
argument of perigee: 48.4952°
revolutions per day: 15.16526121
mean anomaly at epoch: 311.7745°
orbit number at epoch: 5546

The dashed part of the orbit path shows where the satellite is in the earth's shadow,  

DLR